Temp
20 19 19 19 20 20 20 20 20 20 20 20 20 20 20 21 20 21 21 21 22 23 24 23 23 23 22 22 22 22 23 23 24 22 23 29 31 30 30 29 29 29 28 27 26 25 24 24 25 24 25 25 24 25 24 24 24 25 25 25 24 24 25 25 25 25 26 27 26 25 25 26 27 26 27 27 26 26 26 26 25 24 24 24 24 23 23 23
19 19 19 19 19 20 20 20 20 21 20 20 20 21 21 21 21 21 22 22 22 22 23 23 23 23 22 22 22 22 23 23 22 22 26 31 31 30 30 29 29 29 28 27 26 25 25 25 24 24 25 25 24 25 25 24 25 25 25 25 25 25 25 25 25 25 25 26 26 26 24 25 27 26 27 27 25 26 26 25 24 23 23 23 23 23 23 23
19 19 19 19 19 20 20 20 21 21 21 21 21 21 21 22 22 22 22 22 22 23 23 23 23 22 22 22 21 22 21 21 24 27 31 32 30 31 30 29 29 29 28 27 27 26 26 26 25 25 25 25 25 25 25 25 25 25 25 26 26 26 25 25 24 24 24 24 25 26 24 25 26 26 27 27 25 26 25 24 24 23 22 23 23 23 23 23
19 19 19 19 19 20 20 20 21 21 21 21 21 21 21 22 22 22 22 23 23 23 23 23 23 22 22 22 22 21 20 23 28 30 32 32 31 30 30 29 29 29 28 28 27 26 27 26 25 25 25 25 25 24 25 25 25 25 25 26 26 25 26 25 24 24 23 24 24 25 25 26 26 26 27 26 25 25 25 25 25 23 23 23 23 23 23 23
18 19 19 19 19 20 20 20 20 21 21 21 21 22 22 22 23 23 23 23 23 23 23 23 23 23 22 22 21 20 21 27 31 30 31 32 31 30 30 29 29 29 28 27 27 26 27 26 25 26 25 25 25 25 25 25 25 26 25 26 25 25 26 25 23 24 24 23 24 25 26 26 26 26 26 27 26 26 26 26 25 24 23 23 23 23 23 23
18 19 19 19 19 20 20 20 20 21 21 21 21 22 22 22 23 23 23 23 24 23 23 23 23 22 22 22 21 20 24 29 30 30 31 31 31 30 30 29 29 28 27 27 27 27 27 26 25 26 25 25 25 25 26 25 25 26 25 25 24 25 26 25 23 24 24 24 25 26 25 25 26 27 26 27 27 27 27 27 25 24 24 24 24 24 23 23
19 19 19 19 19 19 20 20 20 21 21 21 22 22 22 23 23 24 23 24 24 24 23 23 22 22 22 21 20 21 25 30 31 31 31 31 31 30 30 29 29 28 27 27 27 27 27 26 26 26 25 26 26 26 26 25 25 25 26 25 24 24 25 24 23 24 23 25 25 24 24 25 27 27 26 27 28 27 27 27 25 25 24 24 24 24 23 23
19 19 19 19 19 19 19 20 20 21 21 21 22 22 23 23 23 24 24 24 24 24 23 23 22 21 21 21 22 25 27 31 32 31 31 31 31 30 30 29 29 28 27 27 27 27 27 27 26 26 26 26 26 26 26 26 25 25 25 25 24 24 24 23 23 23 23 24 23 23 25 26 27 26 27 28 28 27 27 26 25 25 24 24 24 24 24 23
19 19 19 19 19 19 19 20 20 21 21 21 22 22 23 23 24 24 24 24 23 23 23 22 22 21 21 20 23 28 30 31 32 31 31 31 31 30 30 29 29 28 27 27 27 27 27 27 27 27 27 27 27 27 26 26 26 26 25 24 24 24 24 23 24 23 23 23 23 25 26 26 26 26 28 28 27 26 26 25 25 25 24 24 24 24 24 24
19 19 19 19 19 19 20 20 20 20 21 21 22 22 23 23 24 24 24 24 23 23 23 22 22 21 20 20 24 29 30 31 31 32 31 31 31 30 29 29 29 28 26 26 27 27 27 28 27 28 27 27 28 27 27 27 26 25 24 24 24 24 23 23 24 24 23 24 24 25 26 26 26 26 28 28 26 26 25 25 25 25 24 24 24 24 24 24
19 19 19 19 19 20 20 20 20 21 21 22 22 23 23 24 24 24 24 24 23 23 23 22 22 21 20 21 25 29 30 30 31 32 31 31 31 30 30 29 29 28 26 26 26 27 28 27 27 28 28 28 28 27 26 27 26 25 25 26 24 24 24 23 24 24 24 25 24 24 26 26 26 27 28 28 26 26 25 25 25 25 25 24 25 24 24 24
19 19 19 19 19 20 20 20 20 21 21 22 23 24 24 24 25 25 24 24 23 23 22 22 21 21 20 22 25 29 31 30 30 31 30 30 31 31 30 30 29 29 28 26 26 28 28 27 28 28 29 28 28 27 26 26 26 25 26 27 25 25 26 24 25 24 24 26 25 25 26 26 27 27 28 27 27 26 25 25 25 25 25 25 25 24 24 24
19 19 19 19 19 19 20 20 20 21 22 22 23 24 25 25 25 25 24 24 23 23 22 21 21 20 21 25 27 29 30 30 30 30 30 30 29 30 29 29 29 29 29 28 28 29 28 28 28 28 28 29 28 27 27 26 26 26 26 27 26 26 26 24 24 24 24 25 25 25 24 25 28 27 27 27 27 26 25 25 25 25 25 25 25 25 25 24
19 19 19 19 20 20 20 20 20 21 22 23 24 25 26 26 26 25 24 23 23 22 21 21 20 20 21 27 29 29 30 30 30 30 30 30 29 28 28 28 28 28 29 29 30 29 28 28 27 27 28 28 28 28 27 26 26 26 26 26 25 24 25 25 23 24 25 24 25 26 23 25 28 27 27 26 26 27 25 25 25 25 25 25 25 25 25 25
19 19 19 20 20 20 20 20 21 21 22 23 24 25 25 26 26 25 23 23 22 21 21 20 20 20 23 27 29 29 29 29 29 30 30 30 29 28 28 27 27 28 28 29 29 28 28 28 27 28 29 28 28 27 27 26 26 26 25 24 24 23 24 26 24 24 26 24 25 26 23 25 27 27 27 26 26 27 26 26 26 25 25 25 25 25 25 25
18 19 19 20 20 20 21 21 21 21 22 23 24 24 24 24 24 23 22 22 21 21 20 20 19 20 24 28 28 28 28 28 29 30 30 30 30 30 28 27 27 27 27 28 28 28 28 28 28 29 29 28 27 28 27 25 25 26 24 23 23 23 24 26 24 23 25 25 25 25 24 26 26 26 26 25 26 27 26 26 26 26 26 26 26 25 25 25
18 18 19 19 20 21 21 21 21 21 22 23 23 22 22 22 21 21 21 20 20 20 19 20 19 20 25 28 28 28 29 29 30 30 30 30 31 30 29 28 27 26 27 28 28 28 28 28 29 29 29 28 27 28 26 22 23 24 24 23 23 24 23 24 25 24 24 25 25 25 25 26 26 25 26 25 26 27 26 26 26 27 27 26 26 26 26 25
18 18 19 19 20 20 21 21 21 22 22 22 22 21 21 20 20 20 20 19 19 19 20 20 20 22 26 29 29 29 29 29 30 30 30 30 30 30 29 29 28 27 28 29 28 28 29 29 29 29 29 27 27 28 24 22 24 24 23 23 23 24 24 24 26 25 24 25 25 25 24 25 26 25 26 25 25 26 26 26 26 27 27 27 26 26 26 26
18 19 19 19 20 20 21 21 21 22 22 21 21 20 20 19 19 19 18 19 21 23 24 23 23 26 28 28 29 29 30 30 30 30 29 29 29 28 29 29 29 29 29 29 29 29 29 29 28 28 28 27 28 28 27 26 27 26 25 25 24 24 24 25 26 25 24 24 25 25 24 25 26 25 26 26 25 25 26 26 26 27 27 27 27 26 26 26
18 19 19 20 20 21 21 21 21 22 22 21 20 19 21 22 23 23 20 19 22 25 27 26 25 27 28 28 29 29 30 30 30 30 29 29 29 28 28 28 29 29 29 29 29 29 29 29 27 27 28 29 29 28 28 28 28 27 27 25 25 24 24 26 26 24 25 25 24 25 25 25 26 25 26 26 25 25 25 26 26 26 27 27 27 26 26 26
18 19 20 20 20 21 21 21 21 21 21 21 20 21 24 24 25 25 23 23 23 22 24 25 25 26 28 28 29 30 30 29 29 29 29 29 29 28 28 28 28 28 28 28 29 28 28 27 27 29 30 29 29 28 29 29 28 28 27 25 25 24 24 26 26 24 25 26 25 24 24 25 25 25 25 25 25 25 25 25 26 26 27 27 27 27 26 26
18 19 20 20 21 21 21 21 22 22 21 21 20 21 23 23 23 23 22 24 24 23 24 24 24 25 26 27 28 29 29 29 30 29 29 29 28 28 28 28 28 28 27 28 28 28 27 27 28 30 28 27 28 28 29 29 28 28 27 25 24 24 25 25 24 23 24 26 25 25 24 25 25 24 25 25 25 26 25 26 26 26 26 27 27 27 26 26
18 19 19 20 21 21 21 22 22 21 21 20 18 20 22 23 23 23 22 23 24 24 24 24 24 25 25 26 28 28 28 28 29 30 29 29 28 28 28 28 28 28 28 28 28 26 25 27 29 28 27 28 29 28 28 28 28 27 26 24 24 25 25 24 23 23 24 25 25 25 24 25 26 25 25 25 25 26 26 26 26 26 26 27 27 27 27 26
18 18 19 20 21 21 22 22 22 21 21 20 19 21 23 23 23 23 23 24 25 25 24 24 25 25 26 27 28 29 28 28 29 30 29 29 29 28 28 29 28 28 28 28 29 27 26 28 29 28 28 29 29 28 28 28 26 27 27 25 25 26 25 25 24 23 24 25 25 25 23 24 26 25 26 24 23 24 25 25 26 25 26 26 27 27 27 27
18 18 19 20 20 21 22 21 21 21 21 20 21 23 23 23 23 22 23 25 25 26 25 25 25 26 28 28 28 29 29 29 29 29 29 29 29 28 29 29 28 28 28 28 28 28 28 28 28 29 29 28 29 29 28 28 26 26 28 28 28 28 27 25 24 23 23 23 25 25 22 23 25 25 26 25 23 24 25 25 26 26 25 26 26 27 27 27
18 18 19 19 20 21 22 22 21 20 21 22 23 23 23 24 23 22 24 24 24 26 27 26 26 28 29 28 28 29 29 29 30 29 29 30 30 30 29 28 28 29 28 28 28 28 28 29 29 30 30 29 29 28 28 29 26 24 28 30 28 28 27 24 24 24 22 22 24 25 23 22 24 26 26 24 23 24 24 25 25 25 25 25 26 26 27 27
18 18 19 19 19 19 20 21 20 19 22 23 24 23 23 24 23 23 25 23 23 27 28 26 27 29 30 28 28 29 28 29 30 29 30 30 30 30 29 28 28 28 28 28 26 27 29 29 29 30 29 29 28 28 29 29 26 25 29 30 28 28 27 25 25 24 23 23 24 24 24 22 22 25 24 23 24 24 24 25 25 25 25 25 25 26 26 27
18 19 19 19 19 17 16 18 17 18 23 24 23 24 24 24 24 25 24 21 24 29 29 28 28 30 29 28 29 30 29 29 30 29 30 31 31 30 29 29 29 29 29 28 25 26 29 30 30 30 29 28 29 30 30 29 28 28 28 28 27 28 27 25 25 24 24 24 22 23 24 22 21 24 23 22 23 24 24 25 25 25 24 24 24 25 26 27
18 19 18 18 19 17 16 15 16 19 23 24 23 24 25 25 25 26 23 22 26 30 29 29 29 29 28 27 29 30 30 30 30 29 29 30 30 30 30 29 29 29 29 28 27 28 29 30 31 30 30 29 31 31 29 29 30 28 27 26 26 26 25 25 25 24 24 23 22 22 23 22 22 23 24 23 23 24 25 25 24 25 24 24 24 24 26 26
19 19 18 18 17 16 15 14 18 22 23 23 24 25 25 25 25 24 21 23 27 29 29 29 29 29 28 28 28 30 30 30 30 29 29 30 30 30 30 28 29 29 29 29 29 29 29 29 29 30 31 31 32 31 28 28 29 27 27 27 26 25 26 26 25 25 23 22 22 22 23 23 22 23 24 24 25 26 26 25 25 25 24 24 24 24 25 26
20 20 19 17 16 15 15 17 22 24 23 23 24 25 26 26 25 22 21 25 27 28 29 29 29 29 28 28 28 29 30 30 29 29 29 30 29 30 29 28 28 28 27 28 28 29 29 29 29 31 31 30 31 30 28 28 27 28 29 28 25 24 25 24 24 24 22 21 22 22 23 23 21 23 26 26 27 26 26 27 26 25 25 24 24 24 25 25
20 21 20 19 18 16 17 20 23 23 23 23 23 25 26 25 22 21 23 26 25 27 29 29 29 29 28 28 29 29 29 29 29 29 29 29 29 29 29 28 28 26 23 24 26 27 29 30 30 30 30 30 31 30 28 28 28 29 29 26 23 22 22 22 22 22 22 22 22 22 22 22 21 25 28 28 28 27 26 26 26 25 25 24 24 24 25 25
21 21 21 20 19 18 18 20 20 21 22 22 23 25 25 22 21 22 24 25 25 27 29 29 29 29 28 29 29 29 29 29 29 29 29 29 28 28 28 28 29 27 24 24 24 24 26 29 29 30 30 30 31 30 27 27 28 29 27 25 23 22 21 22 21 21 22 22 22 23 23 22 22 26 28 28 28 27 25 25 25 25 25 25 24 24 25 25
21 22 22 21 20 20 19 18 19 20 21 21 24 25 24 21 22 23 24 26 26 27 29 28 28 29 28 29 29 29 29 29 29 29 29 28 28 27 28 28 28 29 27 25 23 23 23 24 28 31 30 30 32 31 30 30 29 28 28 27 24 23 22 22 22 22 22 22 22 22 23 22 22 25 28 27 26 25 24 24 24 24 24 24 24 24 25 25
21 22 22 22 21 21 20 18 18 20 20 22 25 24 22 21 22 23 24 26 27 27 28 28 28 28 28 28 29 30 29 29 29 29 28 28 27 27 28 28 28 29 28 24 23 24 22 23 29 31 29 30 32 31 32 32 29 26 27 27 25 25 25 22 22 22 22 22 22 22 22 23 25 27 27 26 25 24 24 24 24 24 23 23 23 24 24 25
22 22 22 22 21 21 21 20 19 19 21 24 24 22 22 23 24 24 25 26 26 27 27 27 28 27 25 27 28 29 30 29 29 28 28 27 28 28 28 29 28 29 29 26 25 25 22 24 30 30 29 31 32 31 32 30 28 26 25 25 26 28 28 23 21 22 22 22 22 21 22 24 25 27 27 26 26 26 25 24 24 24 23 23 23 24 24 25
21 21 20 21 21 21 21 21 19 19 22 25 24 22 23 25 25 25 26 26 26 27 27 25 26 26 24 25 27 28 29 29 28 27 26 26 27 28 29 29 29 29 30 29 27 27 24 24 29 31 31 31 30 31 32 30 29 27 25 27 27 27 28 25 22 22 21 22 22 21 22 22 23 24 27 28 28 28 26 24 24 24 23 24 24 24 24 24
17 17 19 20 20 20 21 21 20 20 23 24 23 22 23 24 25 25 26 26 26 27 26 24 25 26 25 24 26 28 29 27 27 27 26 26 27 29 30 30 30 29 30 30 29 28 26 24 27 30 30 30 30 30 30 29 30 29 28 29 28 24 24 24 22 22 22 21 22 21 21 22 22 23 27 29 29 29 27 25 25 25 24 24 24 24 24 24
15 18 21 20 20 20 21 20 20 22 24 23 23 23 23 23 25 25 25 26 25 26 26 25 26 26 26 26 26 28 28 26 26 26 26 26 26 28 30 30 31 29 29 30 30 29 28 25 25 28 30 30 30 29 27 27 29 30 29 30 29 26 24 23 23 23 22 21 21 22 21 22 23 25 28 30 30 30 28 27 26 26 24 24 24 25 25 24
15 20 22 20 19 20 20 20 21 23 24 22 22 23 23 23 25 26 26 26 26 26 26 26 26 26 27 27 27 28 28 27 27 27 26 27 27 28 30 30 31 30 28 29 30 29 29 25 23 27 30 28 28 29 28 28 29 28 27 27 27 26 25 25 24 23 22 22 21 22 21 23 26 27 28 31 30 30 29 29 28 26 24 25 24 25 25 24
13 20 21 19 20 20 20 22 22 22 23 22 22 23 23 24 25 25 26 26 26 26 26 26 26 26 27 27 27 28 29 28 28 27 27 28 27 28 30 31 31 30 28 28 29 29 29 26 23 25 26 25 28 30 30 30 31 29 28 27 27 26 24 23 23 22 23 22 21 22 21 23 27 26 27 30 30 30 28 28 29 27 24 25 24 25 25 25
15 21 21 19 20 20 20 22 22 21 22 22 22 23 24 24 25 25 26 26 25 26 26 26 26 26 26 26 27 28 28 28 28 27 28 28 28 29 31 31 31 30 29 29 29 29 30 28 25 24 25 27 29 29 27 29 31 30 29 29 29 28 25 23 22 22 22 21 22 22 21 24 28 25 25 27 27 27 25 26 28 26 24 25 25 25 25 25
17 19 20 20 20 20 21 22 21 21 22 23 23 23 23 24 24 25 25 25 25 25 25 26 26 26 27 27 27 27 28 28 28 28 29 29 30 30 31 31 30 30 30 30 29 29 30 28 25 24 26 28 29 29 28 29 30 30 29 29 29 29 28 26 25 24 23 21 22 22 21 25 27 24 23 24 24 25 24 24 26 26 25 25 25 25 25 24
13 14 17 20 20 21 21 21 21 21 22 22 22 22 23 24 24 24 24 25 25 26 25 26 27 27 27 27 27 28 28 27 27 29 29 29 31 31 30 30 30 30 30 30 30 29 28 26 24 23 24 25 25 27 27 28 29 30 30 29 29 30 29 27 26 25 23 22 22 22 21 24 27 25 24 24 25 25 24 24 25 25 25 25 24 24 24 24
13 14 16 18 19 21 21 20 20 21 21 21 21 22 23 23 24 25 24 25 25 26 26 27 27 27 28 27 28 29 29 27 28 28 29 29 31 31 30 29 29 29 30 30 31 30 28 27 26 23 22 22 22 23 24 26 28 29 29 29 29 30 29 27 25 23 23 22 22 22 22 25 28 27 26 26 27 27 25 24 24 25 24 24 24 23 23 23
15 17 17 18 19 20 20 19 18 19 20 19 20 22 22 22 24 24 24 24 25 25 26 26 27 27 27 28 28 29 29 28 28 28 29 30 30 30 30 30 29 28 29 30 30 31 29 28 28 26 24 24 24 26 27 28 27 27 27 29 29 29 30 28 25 23 23 22 22 23 24 25 27 28 28 28 27 27 26 26 26 25 24 24 23 23 22 22
15 16 16 17 18 19 19 18 17 17 18 19 20 22 22 22 22 23 24 24 24 24 25 26 26 26 26 27 28 28 28 28 28 28 29 28 29 29 29 29 29 28 29 29 29 30 30 27 27 28 27 27 28 29 29 29 29 28 27 28 28 28 29 28 25 24 25 23 22 25 26 24 26 29 29 29 28 27 27 27 26 26 25 24 23 23 23 23
15 15 14 14 16 17 18 17 16 16 18 18 20 21 21 21 21 21 22 23 24 24 24 25 25 25 24 26 27 28 28 27 27 28 27 27 28 29 30 30 29 28 29 29 28 30 30 27 26 27 27 28 28 27 28 29 30 30 29 29 28 27 28 28 26 26 27 25 24 27 27 26 29 31 29 29 29 27 27 25 24 24 24 24 24 24 24 24
13 13 13 13 14 15 15 16 16 16 18 19 19 20 20 20 20 20 20 22 23 23 23 23 23 23 23 24 26 28 27 25 25 27 27 27 27 29 30 30 29 28 29 30 29 29 29 27 27 27 27 28 29 27 27 29 29 29 29 30 29 28 28 29 28 27 27 27 27 28 28 28 31 30 28 27 25 25 24 23 23 24 25 25 25 25 25 24
10 10 11 12 13 14 14 15 16 17 18 19 19 19 19 19 19 19 19 21 22 23 23 21 21 22 23 24 25 26 25 24 25 27 27 27 27 28 28 28 29 29 29 30 29 28 27 26 27 29 27 26 29 29 27 28 29 28 28 29 29 28 27 28 28 26 26 27 27 26 26 28 29 26 25 25 24 24 25 24 25 25 25 25 26 25 25 25
9 9 10 11 13 14 15 15 16 17 17 17 17 18 18 18 18 18 19 21 21 22 22 21 21 22 23 24 24 23 22 22 24 25 26 27 28 28 29 28 28 29 29 29 28 29 29 26 27 28 25 23 27 28 27 28 29 27 26 27 28 27 27 28 28 27 27 27 25 23 24 29 29 25 24 25 25 26 27 26 25 25 24 25 26 26 26 25
8 9 9 10 13 14 14 15 16 16 17 16 16 16 17 18 18 18 20 21 21 21 21 20 21 21 23 24 23 22 21 21 22 23 24 25 26 27 29 28 28 29 29 29 28 28 28 27 27 26 24 23 25 26 27 27 25 24 26 28 29 29 28 28 28 28 28 27 27 26 27 30 28 25 26 27 25 26 28 27 26 25 24 24 25 26 26 26
Height
789 788 787 786 785 784 782 781 780 778 777 776 774 773 771 770 768 767 766 765 764 763 763 763 763 763 762 761 761 761 761 760 760 760 758 753 752 755 756 757 757 759 761 762 763 765 767 769 769 769 770 771 773 774 773 773 773 779 789 796 800 802 798 793 794 792 789 788 787 785 784 785 787 784 778 779 784 786 788 788 786 785 784 785 787 789 793 796
789 788 787 786 785 784 782 781 780 778 777 776 774 773 771 770 768 766 765 764 764 763 763 763 763 763 762 761 761 761 761 759 760 759 753 750 752 754 755 756 757 759 760 761 762 763 767 769 768 769 772 775 776 774 776 775 775 783 792 796 797 797 792 787 788 787 787 788 787 785 785 785 785 784 779 785 793 789 792 794 790 792 790 789 789 791 794 796
789 788 787 786 784 783 782 781 780 778 777 776 774 773 771 770 768 767 765 765 763 763 763 762 763 762 762 761 761 762 760 760 761 756 749 748 751 753 754 756 757 759 759 761 762 763 765 767 767 770 775 779 777 776 779 777 779 784 789 796 793 788 787 785 786 786 786 787 787 786 785 785 784 781 779 787 794 792 794 795 793 797 795 792 791 792 794 796
789 788 786 785 784 783 782 780 779 778 777 776 774 773 771 769 768 767 765 765 763 763 763 763 763 762 763 761 762 762 759 762 760 750 747 748 750 752 754 756 757 759 760 761 763 764 765 766 768 771 777 782 779 778 781 779 781 784 787 793 789 785 786 784 784 785 785 785 787 787 786 786 782 779 781 786 795 798 793 788 787 791 792 792 792 792 794 796
789 787 786 785 784 782 781 780 779 778 777 775 774 772 771 769 768 767 766 765 764 764 763 763 762 762 763 761 763 760 761 770 759 745 747 748 749 752 753 755 757 759 760 762 763 765 766 767 769 773 779 784 783 783 783 778 778 785 786 787 785 785 787 785 783 784 784 785 786 786 787 785 780 780 782 784 793 793 785 781 781 783 785 787 789 791 793 795
789 787 786 785 783 782 781 780 778 777 776 775 774 772 771 770 768 767 766 765 764 764 763 763 762 762 762 761 763 759 764 771 754 744 748 747 749 752 753 756 757 759 760 762 763 764 767 768 772 778 781 784 786 785 784 777 777 787 788 784 784 784 784 784 783 783 783 785 787 786 786 783 782 783 782 781 784 781 774 776 779 780 782 784 787 791 793 795
789 787 786 785 783 782 780 779 778 776 775 774 773 772 771 769 768 767 766 765 764 764 763 763 763 763 762 762 762 760 764 761 746 746 749 747 751 751 753 756 756 759 760 761 763 765 768 770 775 779 782 785 784 783 782 778 779 788 791 785 785 783 783 784 783 784 784 785 786 785 785 783 784 785 782 781 779 775 773 774 778 781 782 785 788 790 792 794
789 787 786 784 783 782 780 779 777 776 775 773 772 771 770 769 768 767 765 765 764 763 763 763 763 762 762 762 762 763 764 754 745 747 748 748 751 751 754 755 756 759 759 762 763 764 768 772 776 776 783 784 780 781 780 781 784 787 790 786 785 784 784 784 784 786 785 785 785 785 786 784 783 783 782 781 777 773 773 775 778 782 784 787 789 791 792 794
788 787 786 784 783 781 780 778 777 775 774 773 771 770 769 768 767 766 765 764 763 763 763 762 763 762 763 762 762 767 760 748 745 747 747 748 750 751 753 754 756 758 759 762 762 764 768 771 773 772 779 780 777 780 778 784 789 785 786 787 786 787 785 784 785 786 787 786 786 787 788 784 780 781 783 779 776 774 773 777 780 783 786 788 790 791 792 794
788 786 785 784 782 781 779 778 776 774 773 772 770 769 768 767 766 765 764 763 763 763 762 763 762 762 763 761 765 769 754 744 747 747 747 748 749 751 752 753 756 757 759 762 761 763 764 766 767 766 772 775 775 778 778 783 785 781 784 786 787 788 786 786 786 786 787 786 786 790 790 785 780 784 787 779 774 774 776 781 782 784 788 788 790 790 791 793
787 786 785 783 782 780 778 777 775 774 772 770 769 767 766 765 764 764 763 762 762 762 762 762 762 762 763 761 768 766 748 744 747 746 748 748 749 750 751 753 754 756 759 761 761 760 760 762 763 765 773 775 775 778 778 777 779 781 783 785 788 789 787 788 787 787 787 786 786 788 790 786 782 786 786 779 775 774 778 784 784 785 788 788 790 790 791 792
787 785 784 782 781 779 777 776 774 773 771 769 767 765 764 763 762 762 761 761 761 761 761 761 762 762 762 763 765 757 745 746 747 746 748 748 749 750 750 753 754 755 757 759 760 758 760 762 763 770 774 772 777 783 780 774 777 781 782 788 792 789 789 790 788 788 789 788 784 785 794 792 788 788 782 776 776 776 780 784 786 787 788 789 790 790 791 791
786 784 783 782 780 778 777 775 773 772 770 767 765 763 762 761 760 760 760 760 760 760 760 761 762 761 763 764 755 747 745 747 746 747 748 749 750 751 751 754 754 756 757 758 758 758 761 762 764 770 769 772 780 779 775 774 778 783 784 790 796 795 795 791 789 790 791 790 783 788 805 800 789 785 779 776 777 779 784 786 787 788 788 790 790 790 791 791
786 784 782 781 779 778 776 774 772 770 768 766 763 761 759 758 758 758 758 759 759 760 760 761 762 761 764 760 747 745 746 745 746 746 747 748 750 751 752 754 755 757 758 758 758 759 762 762 764 768 768 771 774 771 777 782 783 787 790 794 801 805 799 791 790 792 793 792 782 791 810 802 789 785 779 778 777 780 786 787 787 788 789 790 790 791 791 790
785 783 781 780 778 776 775 773 771 769 767 764 761 759 757 756 756 755 757 758 758 760 760 761 762 761 764 757 745 745 746 745 746 745 746 748 749 751 752 753 755 756 758 758 759 760 762 763 767 772 771 767 770 778 788 791 789 791 798 805 809 809 802 792 790 791 793 793 785 794 809 801 790 786 780 779 779 781 786 787 787 788 789 790 790 790 791 790
784 783 781 779 777 775 774 771 769 768 765 762 760 758 756 755 755 755 757 757 758 760 760 762 761 762 766 758 746 745 745 745 745 745 747 747 748 750 750 753 755 757 759 758 759 760 762 765 767 770 771 772 778 786 792 798 798 797 802 809 809 807 805 797 792 790 790 793 791 795 804 799 792 787 781 780 780 782 786 787 787 787 788 788 789 789 790 790
784 782 780 778 776 774 772 770 768 766 764 761 759 757 756 755 755 755 757 757 759 759 760 762 760 762 761 750 747 748 744 743 744 744 745 746 747 749 750 753 755 757 758 758 759 761 763 766 769 770 773 779 784 786 798 808 805 802 805 808 806 805 806 801 795 790 789 794 796 796 800 797 792 787 783 782 781 783 786 786 786 786 786 787 788 789 789 790
783 781 779 777 775 773 771 769 767 765 763 760 759 758 757 756 756 757 757 758 759 760 762 762 761 767 762 749 748 747 741 742 743 743 744 745 747 748 750 752 753 756 759 762 762 763 765 768 772 777 780 784 786 788 801 806 799 800 804 805 804 803 803 802 795 791 790 795 798 800 802 797 791 788 785 783 783 784 785 784 785 784 784 786 787 788 788 789
782 780 778 776 774 772 770 768 766 764 762 760 759 758 757 757 758 758 758 759 760 761 762 761 759 764 761 750 745 742 739 741 742 742 743 744 746 748 750 751 753 757 765 771 769 766 768 773 779 784 786 788 788 787 791 793 791 794 797 799 801 799 798 797 793 789 789 796 800 800 801 796 792 790 786 783 783 785 785 783 784 784 783 785 786 786 787 787
781 779 777 775 773 771 769 767 765 763 762 760 759 758 759 760 760 761 760 758 756 752 752 753 752 753 752 746 741 740 740 741 741 741 741 743 745 749 752 754 758 762 769 774 774 768 769 780 787 785 784 782 782 783 783 785 787 790 794 797 798 798 795 791 790 788 785 794 800 797 798 797 792 790 787 784 784 786 786 786 786 785 784 784 785 785 785 785
780 778 776 773 771 769 767 765 764 762 761 760 758 759 760 762 764 764 761 754 748 744 745 745 744 746 744 741 739 739 742 744 742 740 741 742 744 753 758 759 767 772 772 773 773 770 772 785 786 777 776 777 778 780 780 782 785 788 793 795 797 799 795 789 790 789 784 791 797 796 800 798 791 790 787 784 786 786 785 786 786 784 784 782 783 784 783 783
780 777 774 772 770 768 766 763 762 761 760 759 758 759 759 760 761 760 760 758 748 740 742 741 742 744 738 738 739 738 745 750 747 742 740 743 746 756 761 762 771 775 772 772 776 779 782 785 778 771 773 776 777 778 779 783 785 788 792 795 797 795 792 790 792 792 787 791 796 797 800 796 789 789 787 784 784 783 781 781 782 782 783 782 781 782 782 783
779 775 773 771 768 766 764 762 759 759 759 759 758 758 758 758 758 756 759 762 752 739 739 740 742 743 739 739 737 739 748 752 751 745 738 743 750 755 760 765 770 772 773 775 779 786 789 779 770 769 772 776 778 780 782 784 786 789 792 796 794 790 791 793 795 796 790 790 794 796 799 795 788 787 786 783 781 779 778 778 779 779 780 779 777 778 780 782
777 774 772 769 767 765 762 760 757 758 758 757 757 757 757 757 756 757 758 760 755 741 735 735 736 737 736 735 733 739 747 747 748 744 736 742 752 754 758 763 768 773 774 774 776 782 781 771 765 769 772 775 779 781 783 786 788 788 788 790 787 785 789 791 793 796 794 793 792 797 803 795 789 790 785 783 784 781 778 778 779 778 778 777 775 775 776 777
775 773 770 767 766 762 760 759 756 757 756 755 756 755 756 755 754 755 757 762 759 744 734 733 734 732 728 730 732 735 742 743 740 738 733 737 747 754 758 759 765 774 775 773 777 779 774 766 764 768 772 774 778 780 781 784 788 786 780 778 776 777 785 792 796 798 806 806 793 796 809 800 789 790 787 784 787 785 781 780 779 778 777 777 777 776 774 774
774 772 769 767 764 760 759 757 756 757 755 754 754 754 755 754 753 753 757 771 767 746 738 737 736 731 724 731 732 732 747 747 732 730 733 734 738 746 758 761 762 770 771 771 775 774 770 764 763 767 771 774 778 780 776 777 787 788 774 766 771 776 783 793 795 794 806 810 794 793 808 807 792 786 787 788 789 787 783 781 779 777 777 776 776 775 773 774
773 771 768 766 763 760 760 757 757 757 755 754 753 753 754 751 753 751 760 783 773 744 739 741 737 729 725 729 727 736 756 747 730 731 730 733 736 740 757 765 764 766 763 769 779 773 765 764 765 768 771 775 779 778 771 771 784 784 766 763 771 774 779 787 789 791 799 800 798 796 800 809 803 788 790 792 790 790 786 782 779 776 776 775 774 773 771 772
772 769 766 764 762 761 760 758 758 755 753 753 751 752 752 750 752 752 770 792 768 735 735 737 730 724 724 727 726 734 744 737 740 741 726 729 737 740 757 762 760 763 758 768 783 772 761 764 766 767 772 777 774 768 765 768 776 773 765 768 771 772 778 784 789 794 796 797 806 805 798 812 812 790 791 795 792 793 787 780 778 774 774 774 773 772 770 769
770 767 764 762 760 759 758 757 756 752 751 750 750 751 749 749 750 756 781 789 755 730 732 730 728 728 729 734 733 733 734 734 743 740 727 732 736 738 754 756 755 762 758 763 773 766 760 759 758 762 770 771 763 758 760 764 768 767 767 771 774 779 783 788 792 792 795 800 806 806 801 811 811 789 790 798 793 790 782 776 776 771 771 771 771 771 769 768
767 764 762 759 757 756 755 754 751 749 749 748 750 748 746 750 756 776 798 781 748 737 733 730 734 735 737 743 743 738 737 739 739 736 735 739 737 738 746 748 751 760 761 762 765 761 756 753 754 757 760 758 753 755 758 760 763 764 768 775 781 786 784 788 792 789 803 810 800 800 800 805 811 792 785 790 781 776 775 774 774 771 770 770 768 769 768 767
763 761 759 756 753 754 754 752 747 747 748 748 748 746 748 757 769 793 796 762 744 744 736 737 740 737 741 747 748 743 742 742 738 741 745 744 746 748 751 753 756 764 770 769 766 763 758 757 757 751 747 750 752 756 759 759 762 763 768 775 784 792 791 795 796 794 814 817 800 802 802 804 814 794 776 777 770 768 771 769 770 769 768 767 766 767 767 766
760 757 755 752 750 749 749 748 745 747 748 747 748 746 754 772 784 790 775 750 750 751 740 743 742 738 743 746 747 745 745 746 742 743 748 749 754 755 755 760 761 771 782 777 771 769 762 758 756 749 744 746 753 762 764 762 764 766 770 776 788 804 808 810 813 813 819 811 800 805 804 807 810 785 769 772 765 764 767 763 764 765 765 764 764 765 765 765
758 753 750 747 745 744 744 744 744 746 747 746 749 749 761 785 789 777 763 755 755 748 739 742 740 739 744 746 747 745 744 748 744 744 746 749 756 756 754 755 754 764 776 776 776 775 769 760 754 752 749 742 748 762 768 767 768 769 771 775 789 809 821 826 830 829 820 806 800 803 802 805 800 777 768 768 762 762 763 761 762 761 762 761 761 762 762 764
755 751 747 744 743 742 742 743 743 744 746 747 751 757 772 789 781 765 763 757 750 744 740 741 741 741 743 744 744 741 745 749 744 745 750 752 759 760 756 755 753 755 764 773 777 775 780 774 756 751 749 743 744 750 754 758 765 769 767 769 779 792 806 817 819 817 813 806 805 805 802 802 794 776 766 763 762 763 762 761 760 759 760 759 759 761 761 762
752 749 746 743 742 742 741 742 743 744 746 747 755 767 779 782 772 765 763 754 748 747 743 741 742 745 746 745 741 736 740 747 745 747 752 755 759 758 755 754 753 753 760 773 775 772 782 775 749 742 743 740 742 742 741 750 765 771 768 769 775 773 778 797 806 804 803 805 808 807 800 792 782 769 764 763 764 764 763 762 761 761 760 759 761 762 761 761
750 746 745 743 743 742 741 741 742 744 745 749 762 774 773 767 762 761 756 749 750 750 747 746 744 748 752 748 745 740 736 741 746 750 753 755 755 753 752 748 747 749 753 764 770 770 778 768 744 741 742 736 738 738 738 747 761 771 771 770 770 762 764 788 806 805 802 805 808 806 797 786 779 770 764 765 764 763 765 764 762 763 761 761 763 763 763 762
748 745 745 744 743 743 742 742 743 745 746 752 765 771 766 758 753 753 750 747 749 748 751 755 749 748 753 750 748 744 738 741 748 751 755 757 752 746 746 743 741 743 741 747 758 760 766 764 746 741 744 737 734 736 737 740 748 764 770 763 761 764 766 777 797 808 812 813 808 806 804 796 791 782 768 764 765 763 765 765 764 763 762 764 764 763 764 763
749 747 746 746 744 744 743 744 745 746 748 757 766 767 763 757 750 749 748 747 748 748 753 760 752 746 751 753 749 743 741 746 751 752 754 757 750 739 739 741 737 736 734 738 750 752 758 765 753 742 745 741 734 740 748 745 742 750 756 751 757 774 777 779 792 804 813 820 812 806 810 802 792 783 768 764 766 762 763 766 764 763 763 764 764 764 764 764
751 749 748 747 745 745 745 746 746 747 753 763 769 765 761 757 750 746 746 746 748 749 753 755 750 748 749 749 747 743 742 746 750 752 751 753 750 737 733 735 733 734 733 736 746 749 753 766 763 747 743 742 740 746 756 757 749 746 750 752 756 767 774 777 785 790 799 816 817 809 808 795 781 774 765 760 761 759 761 764 762 762 763 763 763 763 763 764
754 752 751 749 747 747 747 747 748 752 757 765 768 762 758 755 749 744 743 744 746 748 751 752 751 752 749 745 745 742 741 743 747 749 747 747 747 738 730 729 730 733 734 735 742 746 750 764 767 753 744 749 750 748 749 752 752 754 758 762 762 765 771 774 781 785 787 802 815 815 808 786 767 765 761 756 756 756 757 758 758 761 761 761 762 762 762 763
757 756 754 750 749 750 749 749 753 757 760 764 764 760 756 752 749 746 742 742 744 743 744 747 749 750 748 747 745 740 740 742 743 745 745 742 744 739 728 722 724 731 737 742 744 744 750 760 763 757 752 752 749 742 740 740 743 749 755 758 760 764 771 780 791 792 785 791 804 810 805 780 760 761 759 753 752 752 754 755 756 759 760 760 760 759 760 760
761 759 755 751 751 750 751 755 759 761 762 762 759 756 753 750 749 748 743 742 744 741 740 743 744 746 746 745 743 740 739 740 740 742 741 738 739 735 722 715 719 724 731 741 741 736 740 752 759 758 753 750 745 741 741 739 737 743 749 752 756 758 762 775 789 789 788 797 800 802 801 777 758 760 759 755 755 754 756 757 756 758 759 758 758 757 758 758
766 762 753 751 752 750 755 762 763 762 761 757 755 753 751 750 749 747 744 744 744 742 743 742 740 740 740 738 739 739 738 737 738 737 735 734 731 723 717 715 719 723 727 735 738 733 737 750 759 759 752 747 743 739 739 738 739 745 750 751 754 755 755 762 771 774 785 798 795 798 802 777 756 760 760 757 758 757 758 758 757 759 758 757 758 756 757 757
771 767 757 752 751 750 758 765 765 764 761 758 757 755 751 749 748 747 747 746 743 742 743 740 736 735 733 732 735 735 734 736 736 732 732 733 725 715 715 716 718 723 725 727 729 729 739 753 760 765 768 764 758 755 751 746 744 746 750 751 750 752 755 761 766 769 780 791 789 791 796 775 757 760 760 757 758 756 758 759 757 758 758 757 758 756 757 758
771 767 761 755 751 751 759 762 764 765 764 763 763 757 753 751 746 744 745 744 740 739 741 736 731 730 730 730 732 730 728 731 734 732 731 731 723 713 714 717 718 720 718 716 716 719 734 748 752 763 778 780 775 769 759 751 749 749 749 750 750 751 753 757 766 772 779 790 789 783 781 769 759 759 757 755 757 755 757 759 756 757 758 757 758 758 758 759
771 768 765 760 754 755 760 761 764 767 767 769 766 758 757 756 748 742 741 741 738 737 737 733 729 730 731 731 733 732 728 728 731 732 731 730 725 718 715 715 717 718 715 713 713 718 732 742 742 748 757 760 755 748 743 743 746 749 749 749 749 751 751 754 766 771 773 785 788 775 770 767 761 759 757 754 756 757 756 757 755 756 758 758 759 759 759 760
775 775 776 773 766 764 764 765 769 771 769 770 768 760 759 760 754 747 742 740 739 737 736 731 730 734 735 733 734 733 731 731 731 730 732 732 727 722 717 714 716 716 713 712 714 720 732 739 741 741 741 742 740 736 737 737 738 742 746 748 750 753 752 752 760 764 765 779 783 770 766 769 761 757 756 752 754 756 755 754 755 755 756 757 759 759 759 760
777 779 781 781 778 775 772 771 773 773 771 769 766 762 762 762 762 759 752 743 739 739 739 736 734 737 737 734 733 733 733 735 735 733 733 733 729 724 718 715 716 714 712 715 716 720 728 736 741 743 740 741 744 744 742 737 735 738 741 743 749 753 751 749 754 759 758 763 765 760 763 764 755 750 751 749 749 751 752 754 755 755 756 756 758 759 759 760
782 783 783 782 782 781 779 775 774 773 770 767 766 765 766 766 766 764 758 751 746 742 743 747 745 740 737 734 731 732 735 738 739 735 733 732 731 729 726 723 719 715 714 717 719 722 727 733 738 740 739 739 741 745 745 740 737 739 740 740 744 749 749 746 751 758 756 753 754 755 757 755 747 746 748 747 750 752 753 755 756 755 755 755 756 757 758 759
790 791 789 787 785 782 779 776 774 773 770 768 769 769 768 768 768 766 759 756 755 748 745 752 751 741 736 734 733 735 738 738 738 734 731 732 731 730 731 729 724 720 717 719 722 722 726 735 739 735 738 742 739 739 745 744 738 739 743 745 744 748 752 751 753 759 759 757 761 763 762 754 747 748 750 749 751 752 752 755 755 754 754 753 755 757 757 759
795 795 794 793 787 781 779 777 775 775 774 774 775 774 771 770 770 769 760 753 754 753 750 752 751 742 736 734 735 738 739 737 737 732 727 728 727 724 725 726 725 724 722 723 725 722 725 737 738 734 742 748 741 741 745 743 740 742 746 748 746 748 751 750 750 753 752 755 764 770 765 753 746 748 750 749 750 750 751 753 754 754 754 754 755 755 756 757
796 795 794 795 789 783 783 781 777 777 778 778 778 776 774 771 769 768 762 752 749 749 749 750 749 745 740 738 738 738 737 734 733 728 724 724 722 719 718 719 720 723 724 725 727 728 730 734 735 738 745 747 746 747 744 743 751 754 745 741 742 744 745 746 747 747 746 748 755 758 750 742 742 746 747 749 751 750 748 749 750 752 753 754 755 754 754 755
Wind_Speed
16 16 15 16 17 17 18 18 18 18 19 19 20 20 19 17 17 16 13 10 7 6 4 3 3 3 5 5 6 6 6 7 6 4 7 10 13 11 5 7 10 15 16 15 16 13 7 4 4 5 2 1 1 1 1 0 2 3 2 3 2 2 2 3 3 3 2 0 1 3 3 4 3 1 2 4 5 6 5 3 4 6 6 9 14 21 24 23
16 16 16 17 17 18 18 18 18 18 18 19 19 20 20 18 17 16 13 10 7 5 3 3 2 3 4 5 6 6 7 7 5 7 13 11 7 11 10 8 13 17 17 17 18 16 8 4 5 4 2 1 1 1 1 1 2 2 2 2 2 3 3 2 3 1 1 1 2 2 2 3 1 3 3 4 4 6 5 3 5 8 8 10 16 21 22 22
17 17 17 18 18 19 18 18 18 18 18 19 19 19 20 19 18 16 13 11 8 5 3 2 2 2 3 5 5 6 7 5 3 7 12 12 9 11 13 12 15 17 17 16 18 16 9 7 8 5 2 1 2 1 1 1 1 1 3 2 2 3 2 2 3 2 2 1 2 4 2 1 2 3 2 6 7 6 5 4 6 7 8 10 12 17 20 20
18 18 18 19 19 19 19 19 18 18 18 18 19 19 19 20 18 15 14 11 8 6 3 2 3 2 2 4 5 5 4 3 2 4 4 12 15 14 15 16 15 16 15 12 15 12 5 8 9 3 2 1 2 1 0 1 1 0 3 2 4 2 1 1 4 3 2 2 2 3 3 2 2 2 3 9 8 3 5 7 8 11 13 13 12 14 18 18
19 19 19 19 20 20 20 20 19 19 18 18 18 18 18 19 18 15 13 11 8 6 4 3 2 2 2 4 4 5 2 3 2 2 2 11 18 17 17 17 14 16 13 9 12 9 5 7 5 1 1 1 1 1 2 2 2 0 1 2 3 3 1 1 4 4 2 3 2 3 3 3 2 1 4 11 9 5 6 8 9 14 16 16 15 14 15 14
20 20 20 20 21 21 20 20 20 19 19 18 17 17 17 17 17 15 11 10 7 4 4 2 2 2 2 3 4 4 1 1 3 1 3 11 19 18 17 15 14 15 13 9 10 7 3 4 3 1 1 1 2 2 3 2 3 1 2 1 1 2 1 0 3 4 3 4 2 1 2 4 1 2 3 9 8 4 4 7 9 12 15 18 17 14 13 12
21 21 21 22 22 22 21 21 20 20 19 19 18 17 16 15 16 14 10 8 5 3 2 2 2 2 2 2 2 3 2 4 5 3 5 12 20 19 17 15 14 17 15 10 9 5 3 3 2 2 1 2 2 3 3 1 3 2 2 1 1 1 1 2 2 3 2 3 2 2 4 4 1 3 2 5 5 3 6 9 10 11 15 17 15 13 12 13
22 22 22 23 23 23 22 22 21 21 20 19 18 17 15 14 14 13 10 7 4 2 1 1 1 1 2 1 1 4 2 5 4 5 7 13 20 20 18 15 13 18 17 11 9 7 4 4 3 2 1 4 2 2 2 3 2 2 2 1 1 1 1 2 3 4 2 1 1 3 5 4 2 0 2 4 4 5 9 11 11 12 13 13 13 13 12 11
22 22 23 23 23 23 23 23 23 22 21 20 19 18 16 14 12 12 9 6 4 3 2 1 1 1 2 1 3 3 4 4 3 7 7 11 19 21 19 14 14 20 17 11 9 8 5 5 5 4 3 4 3 2 3 4 1 3 2 1 2 2 2 2 2 4 2 1 2 3 5 5 4 2 2 3 4 9 11 12 13 13 13 12 12 12 12 11
22 22 23 23 23 24 24 24 24 23 23 21 20 19 17 14 12 11 8 5 3 4 4 3 2 1 2 1 4 1 4 2 5 9 8 10 18 23 20 15 17 20 16 11 11 9 7 6 4 4 2 2 2 2 4 4 1 2 4 4 4 2 2 2 2 2 2 1 2 2 4 6 5 2 2 2 5 11 12 12 12 13 13 12 11 11 11 11
23 23 23 24 24 24 24 25 25 24 24 23 22 20 17 15 12 10 8 5 4 5 5 4 3 1 1 2 5 2 3 1 5 10 9 10 16 22 22 18 18 20 16 10 13 16 12 6 2 2 0 1 2 1 2 3 3 3 5 4 4 3 2 2 2 3 1 1 3 4 3 6 4 1 3 3 7 11 13 13 12 13 11 11 12 10 10 10
23 23 24 24 24 25 25 26 26 26 26 25 23 20 17 15 12 10 7 4 4 6 6 5 3 0 1 2 3 6 5 3 3 9 10 10 14 19 21 20 19 20 18 10 12 20 18 8 2 1 2 1 1 0 2 3 4 3 4 4 4 5 3 1 1 1 1 1 3 4 2 6 2 2 5 2 8 10 12 13 11 11 10 10 10 9 8 9
23 23 24 24 25 26 26 26 27 27 27 26 24 21 17 14 12 10 6 5 6 7 7 5 3 0 2 1 4 4 6 4 2 6 10 12 12 13 17 18 17 18 18 14 13 16 18 12 3 2 3 1 1 1 3 3 3 1 3 3 2 5 4 3 1 2 2 1 2 3 1 5 5 6 6 2 7 10 10 11 10 9 9 8 9 8 8 9
23 23 24 25 25 26 27 27 28 28 27 27 24 20 16 13 10 8 6 6 7 7 6 4 2 1 2 4 5 3 6 6 4 7 11 14 11 7 12 15 15 17 17 16 14 7 8 10 4 2 3 2 2 2 3 3 3 2 2 2 2 2 3 4 1 5 3 1 1 3 1 5 6 6 6 3 5 10 10 10 10 9 8 7 8 8 8 9
23 24 24 25 25 26 27 28 29 28 29 27 23 19 14 11 8 5 5 7 7 6 5 3 2 2 1 5 5 3 5 5 7 11 11 14 12 7 11 17 16 17 17 17 14 4 2 5 2 1 2 1 3 4 3 3 3 2 1 2 2 1 4 6 2 7 4 2 0 3 2 5 5 6 6 3 4 9 9 9 10 9 9 8 8 8 8 8
24 24 25 25 26 26 27 29 29 29 29 25 20 16 11 6 2 4 7 7 7 6 5 3 1 2 1 3 1 1 4 5 7 10 11 13 14 6 8 17 13 14 16 14 14 10 5 4 2 2 2 2 4 4 3 3 3 3 1 2 2 2 3 4 2 5 5 1 1 1 2 3 3 5 6 2 5 8 8 9 10 10 10 9 7 8 7 7
26 26 26 26 27 27 27 29 29 30 29 21 16 12 7 4 5 7 8 8 8 7 5 3 2 1 1 3 1 2 4 7 6 8 13 15 16 9 5 9 8 9 11 9 10 8 4 4 1 1 2 3 2 4 3 2 3 3 1 1 3 3 2 2 3 4 5 3 2 2 2 4 3 4 5 1 6 8 9 10 10 9 9 8 7 7 7 7
27 28 27 27 27 27 28 28 28 31 26 16 12 8 6 8 7 6 8 9 8 6 3 2 1 1 3 4 2 3 2 4 5 7 13 15 17 14 3 3 4 6 3 1 3 3 1 1 1 1 2 3 2 4 2 4 3 2 2 1 3 2 3 4 3 4 7 4 3 3 4 8 7 4 4 3 3 8 10 10 10 9 8 8 7 7 8 8
28 29 28 28 28 27 29 28 29 29 20 13 9 4 7 8 7 5 7 7 4 2 1 2 3 1 3 5 4 4 2 1 3 6 12 14 14 13 4 2 2 4 3 1 1 2 1 2 3 1 1 1 4 5 5 6 5 5 4 4 3 4 5 5 4 4 8 5 4 6 5 7 7 4 4 4 0 5 8 8 8 7 7 7 7 7 7 8
28 29 28 30 29 28 29 27 29 25 15 13 7 3 4 4 4 2 0 2 4 5 3 5 6 3 3 5 4 4 4 3 3 5 10 14 11 8 2 3 3 3 2 3 2 1 3 3 2 4 6 6 6 6 5 6 5 5 4 3 5 5 6 3 2 4 7 5 4 7 5 6 7 5 5 4 1 4 7 7 7 7 6 7 8 8 8 9
29 29 29 30 29 29 29 27 29 21 12 15 7 3 1 2 2 2 3 4 7 8 8 9 9 7 7 5 1 2 1 1 3 2 8 13 11 7 1 1 3 1 2 4 2 2 3 4 6 7 8 6 6 7 5 4 3 2 2 3 4 4 6 3 1 4 6 4 3 4 4 8 8 6 4 3 4 6 7 8 9 9 7 7 9 9 9 7
30 30 30 31 30 31 29 28 29 16 9 14 7 1 1 3 1 3 3 4 8 8 10 10 6 8 10 7 5 1 3 0 5 4 7 12 8 5 2 3 5 3 1 3 2 2 2 4 9 9 6 4 4 5 3 2 2 1 1 1 4 4 4 3 2 1 5 3 2 3 5 8 8 6 5 5 6 6 7 8 8 8 8 8 9 9 8 6
30 31 31 31 32 31 29 30 26 10 7 15 7 1 2 2 6 2 4 2 7 5 7 8 5 7 7 7 8 6 3 3 3 5 9 13 5 5 5 4 6 4 1 4 4 3 2 6 8 6 6 6 4 3 3 2 2 2 3 2 5 4 2 3 2 1 2 1 1 3 3 5 5 3 5 6 6 4 5 7 6 6 8 9 10 10 9 9
31 33 32 32 33 31 31 30 15 3 14 19 4 4 2 7 9 0 5 1 5 5 5 8 5 6 7 4 8 11 4 4 4 4 10 14 4 3 6 5 6 3 3 5 7 5 6 6 3 3 6 6 4 2 5 3 4 4 6 6 7 5 4 3 2 3 2 2 2 4 2 5 3 2 5 4 2 3 4 5 6 6 6 6 7 8 10 11
31 33 33 34 32 32 33 20 2 7 22 14 4 2 7 11 11 1 4 2 3 6 3 5 3 5 7 5 9 10 3 3 6 5 10 14 8 4 3 3 4 4 5 5 6 5 8 6 2 1 1 5 4 4 5 6 3 4 6 11 11 7 6 5 6 5 3 2 2 3 2 5 4 2 5 2 1 4 3 4 8 7 6 6 6 7 9 10
32 32 33 34 33 35 27 7 3 17 20 3 5 5 9 11 10 2 4 5 3 5 1 2 1 5 8 6 6 7 4 3 6 6 9 13 10 6 2 2 1 4 6 4 3 3 4 2 4 3 3 3 3 5 5 8 3 3 5 8 7 6 9 9 9 5 2 2 3 2 4 3 5 4 5 2 4 6 4 5 8 7 6 7 7 7 8 8
32 32 33 33 33 33 17 5 14 17 7 2 4 8 9 11 7 4 3 5 3 3 2 1 1 6 8 6 8 8 3 4 2 5 8 13 9 4 3 5 1 2 4 4 1 3 2 2 3 3 2 2 3 4 6 8 7 4 6 5 9 9 10 12 10 5 2 2 3 3 4 0 4 4 4 2 5 6 6 7 8 7 7 7 7 8 8 9
33 33 33 32 32 29 14 11 14 8 4 6 8 8 10 10 3 4 4 3 2 1 2 1 0 6 3 3 8 6 3 2 3 3 6 14 11 4 3 8 6 6 4 6 4 5 2 4 4 5 3 1 5 6 6 9 5 6 3 5 6 6 7 8 7 3 1 2 2 4 2 2 4 6 4 1 4 6 8 10 9 9 9 8 8 8 9 10
34 34 34 33 32 26 13 9 9 7 8 8 7 9 11 7 1 4 4 1 1 2 1 0 1 3 2 3 6 2 1 2 2 2 2 9 8 3 4 7 6 6 3 4 6 6 3 5 6 7 3 4 8 7 7 10 5 3 5 9 7 6 6 5 5 3 3 3 2 5 4 2 4 5 3 2 2 7 9 9 9 9 9 8 8 7 8 8
35 35 35 35 31 20 8 10 12 8 6 6 8 10 7 3 4 4 1 2 1 2 0 0 1 1 4 6 4 2 1 1 1 1 3 3 2 4 3 3 6 5 1 1 2 5 3 2 3 5 4 6 6 4 4 7 6 6 8 9 8 6 5 4 3 3 4 2 4 7 7 4 1 5 3 2 4 6 6 5 6 8 8 8 8 7 7 7
36 35 36 35 27 14 5 7 7 2 2 5 8 6 2 3 4 4 3 4 2 2 2 1 1 2 6 6 3 2 2 1 2 4 2 2 3 2 1 1 3 3 2 3 3 5 6 3 1 4 5 5 3 1 1 2 5 7 5 5 5 3 4 4 4 4 4 3 6 5 5 5 1 5 4 5 6 5 5 6 7 9 10 9 8 7 7 7
36 36 35 31 21 13 10 7 3 2 4 7 6 3 4 2 1 3 4 4 2 1 1 0 1 2 6 3 1 3 3 0 1 4 5 4 4 5 4 4 4 2 2 4 3 4 5 4 3 4 4 5 5 1 2 5 5 5 4 5 5 2 3 2 2 1 2 5 3 3 4 2 4 7 5 6 8 6 6 6 7 8 10 10 9 8 6 6
36 36 34 25 15 13 13 10 9 10 8 4 2 4 6 3 3 4 4 3 0 2 1 1 2 1 7 3 2 3 3 2 3 2 3 4 4 5 3 3 6 4 1 4 1 1 4 6 4 2 3 4 7 5 1 0 1 3 4 4 4 3 2 1 2 1 2 4 1 3 2 1 4 5 5 6 6 6 5 5 6 7 8 9 9 9 7 6
36 34 28 18 9 8 7 6 9 10 7 1 3 5 5 3 4 3 3 3 2 2 2 0 3 2 5 4 4 4 3 3 4 4 2 3 4 5 4 3 5 4 3 2 2 3 3 5 4 4 3 3 7 7 6 5 3 3 4 5 5 5 4 3 3 2 3 3 1 0 1 2 2 3 4 5 4 3 2 2 3 4 6 6 7 8 8 7
35 30 19 10 9 10 6 4 8 8 7 3 6 4 4 4 3 1 2 3 2 2 3 2 1 2 1 2 3 4 4 3 3 5 3 4 4 5 4 5 5 4 4 3 2 2 3 5 7 4 2 6 7 4 6 7 3 2 2 5 3 5 5 2 3 5 4 1 0 1 2 3 3 4 5 3 1 3 3 3 2 1 1 4 5 6 7 7
34 26 12 7 10 11 7 4 12 11 7 5 5 2 4 3 3 2 1 1 1 2 4 4 2 2 1 2 3 3 2 2 3 3 2 2 3 4 3 4 6 7 5 5 3 1 2 5 7 2 1 5 7 5 5 4 3 2 2 3 4 4 7 4 2 1 2 2 2 1 2 4 3 2 3 3 3 3 4 3 2 2 3 5 5 5 5 6
33 22 7 7 13 10 6 4 14 10 4 6 4 4 3 3 3 2 1 1 1 2 4 3 1 1 1 1 3 4 3 2 2 3 2 2 3 4 5 3 4 10 10 6 3 3 4 4 6 1 3 6 3 5 4 2 5 5 2 5 3 2 5 4 2 2 4 1 3 2 2 4 2 1 4 5 2 1 3 3 2 3 4 4 4 4 4 5
26 15 4 8 13 7 2 7 11 6 4 4 2 3 2 2 2 1 1 1 2 2 3 1 3 1 2 1 3 4 5 4 3 4 3 2 4 4 6 4 5 11 12 7 3 3 3 2 7 3 3 4 2 5 4 3 3 4 4 4 4 2 1 1 2 1 1 1 3 3 3 3 3 3 3 1 3 4 3 2 1 2 3 4 4 5 4 4
14 6 2 9 11 5 8 8 5 3 5 3 3 3 2 2 4 3 2 1 1 1 1 3 3 1 0 2 3 3 4 5 5 4 3 3 4 4 4 4 4 7 9 9 6 2 2 1 5 5 3 0 3 3 3 2 2 3 2 2 2 3 3 2 2 2 3 2 1 3 4 3 5 5 4 6 7 6 4 3 3 4 4 4 5 5 5 5
5 1 2 9 9 7 5 3 3 4 3 3 3 2 2 2 4 5 4 2 1 1 2 3 2 1 2 2 2 2 2 4 5 4 3 4 4 4 4 5 3 4 7 8 5 1 2 2 3 5 3 1 1 2 6 7 3 3 3 2 1 2 3 2 1 1 3 4 2 1 2 5 6 4 6 7 7 7 7 5 5 5 5 5 5 5 5 5
3 2 2 6 7 4 6 5 2 3 2 2 2 2 2 2 3 5 5 4 3 3 3 3 3 3 3 3 3 2 1 2 4 3 3 4 4 3 5 8 6 4 6 4 2 2 2 2 2 3 3 1 4 4 5 9 8 6 5 5 4 3 4 3 0 1 2 3 3 3 1 6 6 3 5 6 6 7 7 6 5 5 5 5 5 6 6 5
2 2 2 1 3 7 6 3 1 1 2 2 2 3 2 3 3 4 4 3 3 3 2 3 5 4 4 4 4 3 2 2 4 4 3 5 6 5 6 6 8 7 6 3 2 4 4 3 2 4 4 5 6 4 2 5 6 6 3 3 4 4 5 5 3 3 2 3 2 3 1 6 5 2 4 5 5 4 4 5 5 4 5 5 5 5 5 5
1 3 4 2 5 4 3 2 3 2 1 3 3 3 2 2 3 3 3 2 2 3 2 2 4 4 5 5 4 3 4 3 3 5 4 4 6 8 7 6 8 6 4 1 1 3 3 3 2 4 5 4 5 5 4 3 5 6 1 1 4 3 3 5 5 4 3 2 2 3 1 6 5 2 2 3 3 1 2 4 5 4 4 4 5 5 5 5
1 4 4 4 5 1 3 0 1 0 3 3 3 3 3 2 3 3 3 3 3 2 2 3 4 4 5 5 4 4 5 3 3 3 3 3 4 5 4 7 7 6 4 3 3 5 4 2 3 1 3 5 5 3 5 5 1 3 2 2 4 4 6 5 2 3 2 4 4 4 2 6 5 3 4 2 1 2 1 1 3 4 4 4 4 4 3 3
2 2 3 5 7 4 3 2 3 1 3 2 3 5 3 2 3 4 5 5 5 3 3 4 4 3 4 2 2 3 3 2 2 1 1 1 3 2 2 3 5 6 5 4 5 6 5 4 5 5 4 3 3 3 3 2 1 1 2 3 4 5 7 5 2 4 1 3 4 4 4 6 6 4 4 3 1 2 0 1 2 3 4 4 4 3 2 2
2 1 2 5 6 5 2 1 3 1 1 2 3 3 2 3 4 4 4 4 4 3 4 6 3 2 3 3 2 3 3 1 1 1 1 1 4 2 2 2 2 4 6 6 8 5 3 3 5 8 8 8 8 8 6 4 4 3 4 6 5 5 7 6 5 3 4 4 3 5 5 3 5 4 4 4 2 3 3 3 3 3 3 3 2 2 2 2
2 1 2 2 3 3 2 3 5 3 1 2 2 2 2 4 4 5 3 2 4 5 4 5 1 1 3 4 2 3 2 2 2 1 2 2 3 4 4 2 2 5 4 6 9 5 4 3 5 8 9 9 7 7 5 6 7 7 8 8 5 5 8 8 5 5 6 6 3 7 5 4 6 7 7 7 5 5 6 6 5 4 3 3 3 2 3 3
2 1 1 1 1 1 2 3 5 4 4 3 2 2 3 3 4 5 4 4 5 5 4 3 4 5 6 4 3 2 0 2 2 1 2 1 2 4 5 1 1 5 4 4 2 3 5 4 4 6 7 7 3 4 4 4 5 5 8 9 7 7 9 8 6 7 8 7 6 7 8 7 8 8 9 9 7 6 6 5 3 3 3 3 4 4 4 3
3 1 2 2 0 2 2 4 5 4 5 3 1 3 4 4 5 4 3 4 5 5 4 4 8 11 9 4 3 2 1 1 1 2 2 1 1 2 3 2 3 4 5 4 2 1 4 2 3 6 3 4 3 4 3 2 3 4 5 8 9 9 9 7 5 6 6 5 5 7 10 9 8 7 7 5 3 3 3 3 3 4 5 5 5 5 4 4
2 1 3 3 2 3 3 3 3 3 4 3 2 3 4 4 6 6 4 2 4 5 5 6 11 13 8 2 3 3 0 1 3 4 3 3 0 1 1 1 2 5 6 3 1 1 2 2 1 5 3 3 4 2 1 2 2 5 4 4 7 7 5 3 3 4 3 0 1 4 6 7 6 3 2 3 5 5 5 5 4 4 5 5 5 5 4 4
3 3 4 3 2 3 2 3 3 2 2 3 2 3 4 4 6 7 5 3 1 4 5 8 12 11 6 4 5 5 6 4 5 7 4 4 2 3 2 3 3 2 6 2 1 3 3 2 1 5 5 3 4 4 4 4 3 3 1 3 7 7 5 3 3 5 6 5 5 6 4 6 6 2 4 4 5 6 5 6 5 5 5 5 5 5 5 5
7 4 4 2 2 3 3 3 3 1 1 2 3 4 4 4 6 7 4 3 3 3 5 7 9 7 4 6 7 7 10 9 9 10 6 4 4 4 2 2 5 3 1 1 1 2 3 4 1 3 4 4 4 3 4 5 4 2 5 6 8 5 4 3 1 5 7 7 8 5 6 6 4 5 5 3 5 6 7 7 6 5 6 5 5 6 5 5
Wind_Direction
17 18 17 15 13 13 13 15 17 17 18 16 14 13 9 4 358 356 352 346 340 330 315 280 274 280 280 279 278 289 302 297 296 276 242 242 229 216 207 192 170 160 165 162 162 158 151 193 194 164 156 20 1 347 342 351 90 61 74 110 140 174 214 188 171 186 167 98 283 339 28 91 91 144 147 75 77 109 111 52 72 56 56 106 125 137 144 148
15 15 14 14 13 12 13 14 15 16 16 14 13 11 10 7 2 1 357 352 348 344 334 296 282 279 277 279 289 311 318 310 306 276 243 233 222 208 205 195 172 165 166 164 168 163 153 196 174 134 69 8 312 358 351 319 82 94 106 102 181 197 209 175 158 185 62 2 297 330 50 89 110 164 147 110 127 135 108 64 85 81 83 109 125 137 144 150
14 13 13 13 11 10 11 12 13 14 14 12 10 9 9 8 5 3 2 359 359 5 357 314 303 295 287 287 311 325 323 339 315 271 243 218 196 190 191 188 179 173 172 173 178 171 166 176 152 123 59 358 292 22 39 340 71 157 104 85 245 219 223 159 134 121 62 9 348 348 18 72 240 198 137 134 150 159 146 145 125 119 131 131 136 142 148 155
14 13 12 11 10 8 7 9 11 11 11 11 8 7 7 6 6 3 3 3 3 14 15 346 327 326 319 305 329 328 324 9 259 246 219 200 183 175 183 183 179 179 180 178 178 169 142 146 146 133 84 356 291 41 26 229 170 208 118 168 228 192 256 215 128 119 72 64 29 341 340 322 255 199 153 138 141 204 207 188 164 153 151 146 150 152 155 159
13 12 11 10 8 7 5 6 6 7 8 8 7 5 4 4 3 0 1 1 3 15 21 12 353 3 339 316 334 326 344 61 241 227 155 189 177 172 179 179 181 186 180 169 172 166 120 125 133 112 76 326 303 65 265 220 144 170 220 201 201 158 196 256 128 131 117 85 35 349 353 324 314 116 155 149 155 217 211 194 169 155 155 154 156 157 158 161
11 10 9 7 6 5 4 3 2 4 4 3 4 3 1 359 359 357 355 356 356 5 22 32 17 17 336 322 343 343 81 137 267 224 158 179 173 172 174 177 187 189 179 163 163 164 138 108 91 117 82 348 177 196 254 221 120 110 297 340 224 200 158 91 126 139 139 104 76 310 323 314 334 93 166 168 179 213 156 152 154 153 153 151 152 157 161 164
9 8 8 6 5 4 3 2 0 0 360 359 359 359 358 354 354 353 347 348 345 340 8 21 10 18 344 335 346 17 88 255 272 167 164 175 175 174 173 175 183 187 182 163 150 151 149 128 137 159 116 295 207 212 234 129 101 112 290 328 335 282 49 39 85 105 114 126 188 302 332 306 168 114 163 188 208 203 129 128 136 144 145 148 153 161 166 169
6 6 5 4 3 2 1 0 359 358 357 355 353 354 353 350 348 346 342 337 327 307 292 306 357 16 2 4 46 18 346 262 252 166 170 178 179 178 175 172 175 186 183 170 158 153 152 157 192 163 152 257 209 188 174 101 73 184 233 287 53 8 19 34 70 78 57 335 292 338 326 281 240 192 195 205 202 149 129 126 132 140 145 153 160 165 170 173
3 3 2 1 0 360 359 358 358 356 355 353 350 347 346 344 342 340 336 321 306 261 244 242 255 8 20 64 83 23 275 250 196 178 177 181 185 183 182 175 175 183 179 180 172 154 167 184 203 200 211 239 192 183 157 118 253 211 170 90 64 10 356 23 81 89 97 302 3 357 315 295 301 306 229 234 173 134 127 132 139 145 152 160 166 170 172 174
360 360 360 359 359 358 357 357 356 354 353 351 346 342 339 336 333 333 326 307 285 239 232 222 231 24 33 46 76 63 261 232 188 190 186 188 187 186 187 181 179 181 174 183 186 173 187 189 185 199 211 252 210 179 151 150 197 139 123 101 83 41 356 18 3 48 116 205 90 49 306 302 317 319 218 254 153 134 129 138 146 151 160 166 170 175 176 179
357 357 357 357 357 355 355 355 353 353 351 348 343 338 334 329 324 324 313 289 258 222 220 220 221 32 30 73 98 196 275 24 197 197 196 196 190 192 195 192 186 182 172 178 204 205 209 205 133 92 140 253 232 139 130 144 108 112 126 87 42 39 43 44 348 339 25 248 150 134 294 306 341 344 229 218 152 142 137 146 156 158 165 171 173 178 179 184
355 354 354 355 355 354 353 352 351 351 349 346 340 334 329 321 314 311 298 262 232 216 217 215 202 195 26 77 168 230 275 333 218 202 199 190 190 200 203 200 196 192 183 180 216 217 217 220 114 79 252 241 295 131 126 110 104 124 113 79 3 15 29 223 270 316 28 319 178 145 332 314 317 249 260 226 155 149 143 152 162 164 170 174 177 181 182 185
353 352 352 352 353 352 351 350 350 350 348 344 338 332 325 314 307 299 275 230 215 209 210 202 195 144 54 255 237 254 269 278 261 214 202 187 185 200 204 202 201 202 197 199 225 223 220 226 183 198 243 142 305 198 117 73 94 95 69 87 13 12 344 258 150 108 143 297 187 155 288 285 270 257 279 308 153 149 146 159 166 168 173 178 181 185 188 186
353 351 350 349 350 350 349 348 348 348 347 344 337 331 323 311 302 285 245 213 208 201 200 191 192 136 96 255 268 306 267 249 242 223 207 195 180 178 200 198 196 201 203 213 234 238 218 227 220 249 266 179 179 106 72 25 46 67 50 59 42 28 302 286 161 134 148 278 166 137 236 263 280 271 276 312 159 155 157 167 169 171 176 184 187 187 194 194
353 351 349 348 348 348 347 346 347 348 347 344 338 334 328 315 299 265 204 193 193 187 184 167 172 132 63 281 276 291 257 234 233 224 216 209 188 165 192 193 194 199 205 218 231 251 198 206 196 216 268 215 110 82 42 9 24 47 58 334 353 176 273 301 214 158 154 291 175 126 221 266 280 269 275 305 169 162 164 172 173 177 181 187 193 192 197 202
353 351 349 346 346 346 345 345 346 347 346 344 341 342 340 335 332 162 164 171 169 163 151 128 116 111 103 283 300 316 241 216 233 223 219 220 208 194 178 182 187 194 206 222 229 241 231 181 181 183 158 69 95 94 49 23 355 358 87 229 249 191 271 316 255 190 159 126 295 187 223 270 285 285 296 289 179 174 172 180 181 182 186 187 193 197 198 198
354 352 349 347 346 345 344 344 345 346 345 344 347 353 9 52 103 138 146 147 151 146 120 103 73 54 276 271 251 274 236 206 224 218 210 218 218 218 145 156 164 169 193 213 213 224 217 183 236 295 72 62 112 101 57 343 305 316 39 232 246 209 227 292 281 229 164 140 224 231 249 251 270 313 321 276 187 186 184 188 189 187 189 189 187 194 196 194
354 351 350 347 345 345 344 343 344 346 345 347 357 17 66 86 100 122 134 133 134 124 82 41 65 48 261 257 247 250 218 184 219 217 206 212 216 217 185 102 121 125 143 203 191 198 197 198 51 24 15 42 118 112 140 237 216 194 184 215 266 257 229 237 261 205 163 158 194 193 249 253 263 308 322 310 197 195 200 193 193 192 190 189 186 191 194 194
353 351 349 347 345 344 344 343 344 345 346 354 3 67 91 85 87 96 123 121 117 138 164 212 167 126 224 247 269 264 275 252 247 225 203 202 206 212 223 21 74 93 81 31 295 238 136 61 56 146 257 158 185 173 181 203 174 170 178 169 210 260 255 222 240 215 165 151 195 198 227 251 257 266 275 296 284 209 219 200 195 198 193 190 189 194 193 198
353 350 348 346 345 343 344 341 342 344 348 354 353 132 82 52 57 26 98 165 210 224 238 200 189 222 271 260 270 263 277 286 244 219 198 193 177 173 210 5 40 58 114 166 237 273 115 135 217 219 215 204 204 197 187 187 166 156 161 184 212 243 269 238 238 236 163 145 216 207 231 267 258 248 246 257 203 221 230 206 203 204 197 192 192 198 197 207
351 350 348 347 344 342 343 338 339 341 341 351 355 155 105 109 85 316 287 280 246 231 242 227 201 220 250 245 218 92 35 303 273 240 185 183 151 133 210 85 110 289 239 170 175 1 80 174 224 225 214 199 188 191 199 207 193 166 176 241 255 233 254 264 251 229 173 162 247 194 221 259 251 235 237 230 192 215 220 205 206 205 203 197 194 201 201 205
350 349 346 346 344 342 342 336 336 333 332 351 358 137 131 129 35 261 218 308 277 234 230 233 213 235 250 250 241 136 83 347 305 310 167 164 146 158 205 107 142 218 258 123 112 1 10 234 237 229 197 141 165 193 207 252 258 273 152 266 282 244 247 297 356 239 177 175 267 188 199 250 255 236 224 214 201 214 214 206 210 202 199 200 196 200 199 192
348 346 345 345 342 341 342 335 332 328 339 345 336 174 125 359 344 278 175 302 287 257 226 220 204 227 243 253 225 176 147 192 251 284 170 154 156 177 153 129 166 180 106 137 157 171 241 248 236 209 155 144 199 197 162 260 277 219 168 156 266 240 202 288 342 79 162 149 167 167 195 262 274 258 237 228 217 222 215 208 220 212 203 204 198 194 191 188
346 345 344 342 340 340 340 334 332 6 343 336 307 155 20 335 346 56 170 287 286 281 233 201 188 208 219 225 179 163 173 186 184 256 174 155 144 155 156 163 161 163 209 180 163 188 239 246 217 136 142 158 208 193 156 206 272 239 195 196 247 235 184 219 159 109 6 338 99 99 21 300 278 230 242 261 263 247 230 208 223 233 227 227 214 198 193 191
345 344 341 341 339 336 337 335 353 357 336 331 166 129 345 334 341 166 167 13 297 293 273 190 191 220 206 162 159 164 154 194 204 214 174 163 152 138 174 171 145 192 216 168 152 214 257 248 189 238 182 144 191 241 185 186 243 289 218 208 227 215 154 139 132 108 38 311 234 107 54 295 303 252 238 256 232 231 233 211 219 229 229 234 230 210 201 195
343 341 339 339 337 335 339 345 329 334 331 321 162 322 329 331 338 173 145 35 307 283 298 164 190 194 182 155 160 143 107 247 229 180 165 170 160 129 149 179 107 202 190 151 157 221 267 237 155 206 240 168 195 261 217 174 155 309 243 200 192 160 135 140 149 132 102 229 256 124 148 265 317 305 256 235 202 221 234 223 223 224 220 221 218 211 204 195
341 339 337 337 336 338 342 303 312 325 321 241 280 310 320 329 334 169 121 23 299 261 159 185 325 169 174 175 163 132 142 250 202 152 172 173 167 94 136 187 154 193 172 118 176 238 194 153 120 146 183 174 205 264 223 161 133 250 252 140 135 147 153 165 160 141 175 183 357 22 125 161 308 284 277 223 193 226 241 231 230 223 219 221 218 212 204 193
338 337 335 334 333 335 326 292 306 309 267 291 300 310 324 327 314 153 82 37 275 286 152 246 175 162 158 166 167 150 190 194 122 208 192 168 173 85 135 205 185 182 174 119 189 260 184 164 176 152 122 164 218 236 187 148 153 244 239 99 126 150 150 158 141 108 105 97 355 305 133 114 274 278 318 62 187 233 237 228 228 223 217 220 221 217 208 198
337 335 333 332 329 329 320 284 283 280 286 300 309 318 322 324 1 99 71 118 264 12 121 74 122 156 72 132 191 202 78 92 127 252 117 155 181 93 152 209 160 164 194 139 193 249 226 200 187 156 149 217 232 239 174 158 193 212 103 79 61 63 79 87 96 96 56 50 249 236 181 150 273 280 327 47 214 237 233 224 224 224 219 214 217 220 211 202
335 333 332 330 325 325 316 278 277 279 286 305 318 317 319 347 64 76 94 228 275 349 90 90 148 140 110 141 213 265 110 7 56 93 53 132 164 60 132 166 100 131 217 4 242 247 269 270 163 163 202 208 222 250 179 167 166 125 94 82 72 55 56 60 57 84 68 350 260 221 189 153 306 280 248 190 222 224 214 218 222 224 226 217 213 215 209 201
333 332 331 326 318 310 287 276 284 243 236 321 330 330 2 46 65 102 197 244 278 328 22 26 312 116 138 158 204 215 183 333 90 124 116 132 113 73 99 104 82 80 4 329 294 294 315 327 213 236 220 178 165 270 357 80 118 111 89 97 97 32 21 38 358 38 91 261 268 231 179 134 185 262 243 229 247 234 198 206 212 214 219 217 210 208 206 200
333 331 329 323 308 274 241 242 251 221 279 320 341 21 81 85 47 174 237 298 308 285 17 185 267 145 159 174 244 192 165 133 163 149 155 150 154 184 191 182 167 84 343 256 263 329 304 250 254 287 236 162 133 171 338 21 52 82 89 89 85 25 17 28 324 4 183 246 254 165 133 115 232 250 254 250 254 244 220 218 218 215 216 212 203 199 199 196
333 332 329 323 306 269 252 251 252 247 264 301 11 53 81 116 228 216 242 313 201 249 349 148 301 122 153 170 248 199 146 185 210 169 152 137 159 210 235 202 171 140 184 209 192 338 293 289 297 299 265 182 140 149 199 3 85 135 143 122 108 99 70 330 276 303 255 265 261 145 147 303 276 267 249 241 252 254 245 239 229 224 222 215 200 189 186 188
334 334 331 328 329 313 286 243 233 230 230 248 69 77 99 157 231 220 228 262 244 300 340 213 322 8 151 182 219 177 146 225 194 139 133 125 153 220 247 230 186 141 131 155 166 179 204 290 246 191 237 187 164 172 168 150 148 186 178 132 136 150 147 200 219 193 232 260 342 3 191 183 227 260 248 245 275 299 306 284 249 241 233 212 190 181 177 179
335 336 336 346 3 353 334 211 186 177 174 119 66 97 159 196 235 214 214 254 287 328 314 290 43 85 185 267 251 190 172 222 173 126 153 164 176 206 204 213 200 145 128 164 220 176 167 253 248 239 229 164 174 189 145 119 113 221 153 105 146 183 153 155 190 177 188 182 90 257 222 207 219 262 289 311 3 27 22 21 38 350 207 157 162 176 175 175
337 340 350 8 5 359 346 192 168 160 153 106 79 166 201 215 211 176 201 267 334 338 330 335 62 106 281 315 288 244 181 167 150 140 195 201 207 209 196 218 196 171 159 166 208 184 143 263 273 299 276 191 186 179 150 148 172 177 123 162 212 177 125 115 189 178 78 128 242 275 273 301 317 283 308 9 56 45 26 24 47 64 101 128 153 169 173 179
338 341 350 357 355 355 345 160 159 157 121 99 129 199 226 239 195 179 251 339 336 13 35 9 332 204 211 310 289 233 163 124 164 180 216 238 239 204 199 239 186 186 193 173 201 207 150 267 289 211 227 259 206 133 95 108 141 127 179 204 195 108 94 105 137 17 39 185 271 338 286 296 343 259 315 2 26 341 357 9 38 70 110 135 154 163 169 181
332 332 329 347 354 0 54 130 146 138 81 100 183 233 225 237 230 224 270 354 320 16 70 179 252 258 162 191 279 223 168 173 193 185 181 217 254 205 178 205 195 198 202 174 195 247 145 255 296 269 216 285 22 95 67 11 95 122 182 174 118 114 140 97 132 134 85 199 286 325 312 275 204 219 283 305 224 239 278 306 106 139 163 157 158 170 172 173
328 333 356 353 4 67 115 121 125 64 70 126 226 247 220 248 274 273 282 335 312 137 152 226 234 330 246 200 237 232 185 180 176 179 174 176 240 233 173 193 213 203 192 169 182 230 113 156 286 287 243 302 31 86 149 243 356 50 110 122 80 129 156 152 146 159 148 151 255 309 335 285 226 219 200 205 217 215 224 238 212 203 201 181 170 174 178 178
349 35 332 352 30 97 103 56 44 53 89 171 208 228 265 274 272 275 275 285 283 196 238 228 188 290 279 254 247 234 199 179 165 181 204 176 209 247 210 191 199 176 166 169 180 175 86 142 239 286 304 104 170 213 177 179 165 97 125 179 245 79 116 151 102 85 129 138 165 227 318 273 251 209 184 208 219 203 197 203 210 210 200 195 184 175 179 185
4 33 317 14 55 44 354 6 62 82 119 214 220 228 282 291 279 290 272 230 217 236 229 214 216 227 240 274 280 254 189 173 171 178 221 201 197 244 225 191 178 142 130 145 190 190 182 164 188 277 325 176 236 251 190 176 163 151 170 186 175 133 119 122 25 316 94 118 157 159 210 271 262 197 199 219 214 207 199 184 194 208 197 199 197 182 180 186
21 22 261 50 355 325 357 65 183 80 136 212 242 227 277 306 273 279 278 237 218 231 229 232 233 222 219 236 250 244 206 193 184 177 209 210 189 215 231 185 163 148 133 143 211 181 154 117 150 255 253 222 250 289 193 176 140 121 143 162 143 133 126 128 185 237 95 87 131 126 168 269 264 205 221 243 244 242 207 173 181 205 199 198 203 196 187 191
61 310 264 287 309 309 69 71 313 356 186 252 271 246 267 291 257 260 278 257 227 213 199 229 219 209 222 219 212 217 206 199 187 182 203 213 204 222 218 150 133 139 135 147 211 158 137 117 157 273 304 305 306 341 12 36 93 107 129 157 145 158 143 142 169 168 128 150 147 93 255 267 280 304 290 263 256 270 149 158 168 193 210 202 200 200 195 198
286 283 269 334 346 101 128 250 266 282 290 299 320 304 289 264 240 259 270 246 238 220 208 236 222 218 229 200 179 210 208 190 200 201 190 191 225 242 184 143 147 161 178 202 182 174 188 154 133 193 325 338 338 0 1 349 46 154 205 183 157 124 101 109 122 88 102 190 154 119 220 256 276 316 347 359 76 101 101 144 167 185 207 212 208 207 203 200
318 281 256 323 358 67 139 175 139 166 306 336 317 298 299 289 248 248 265 255 243 225 229 261 246 219 239 214 181 232 220 183 227 253 116 198 272 316 79 136 173 183 219 230 170 164 179 160 141 160 191 219 206 201 235 253 204 201 201 173 163 129 123 141 126 82 110 194 143 141 209 261 291 315 342 345 81 137 223 300 254 205 197 207 213 207 203 198
11 19 310 320 356 39 73 38 69 82 6 8 315 284 302 320 293 274 278 267 263 255 238 254 256 209 250 259 252 258 247 172 62 65 105 244 272 291 355 327 216 221 245 198 162 140 122 159 168 165 183 197 194 209 216 159 143 194 193 173 171 144 127 120 112 136 178 160 169 218 205 228 278 267 274 280 238 200 222 233 242 235 214 209 208 198 186 158
58 36 2 344 337 10 24 18 33 31 327 327 298 286 321 328 324 321 316 301 321 325 275 245 186 110 257 241 215 247 263 26 38 113 174 235 269 283 304 286 224 295 305 162 158 119 97 180 187 173 201 215 200 217 216 159 166 189 173 166 176 154 132 125 145 187 158 128 239 252 188 175 243 233 227 238 222 212 222 217 220 230 221 192 165 164 165 147
37 53 30 48 273 321 359 345 354 345 308 282 250 313 339 355 360 346 320 305 323 344 342 334 12 348 302 254 192 203 101 38 354 261 190 236 301 326 334 323 244 328 11 101 114 93 126 180 179 168 222 248 255 283 259 167 161 164 159 162 162 161 162 159 180 192 152 146 226 226 166 186 238 227 216 220 205 198 206 201 190 177 171 165 156 159 168 170
22 37 349 17 259 251 282 301 314 321 312 299 310 358 2 7 2 342 302 305 322 356 26 354 331 330 316 274 191 162 141 148 263 262 204 185 342 8 3 320 294 339 40 65 2 82 136 178 171 150 199 270 291 300 285 210 143 132 155 169 163 167 175 166 177 187 158 162 206 179 173 208 232 219 216 213 154 137 131 125 137 157 168 177 178 177 179 184
18 11 342 357 315 279 275 288 314 335 333 337 3 358 353 6 1 335 294 267 298 328 13 358 327 326 326 315 122 114 50 216 227 243 193 147 131 192 158 209 268 340 16 53 329 313 132 177 169 110 110 286 309 2 355 292 179 143 133 151 150 148 148 131 133 151 139 113 78 127 170 231 255 225 187 115 113 116 123 144 171 194 192 186 185 185 187 189
1 312 329 336 305 318 320 310 339 9 352 1 20 354 343 356 358 332 290 223 245 311 349 348 326 320 326 12 67 50 345 316 263 261 221 168 216 224 178 171 181 337 354 15 355 357 67 120 44 77 113 252 313 55 59 21 61 98 72 158 156 147 156 181 174 174 178 160 105 96 158 238 255 193 119 109 135 144 158 178 191 213 209 189 188 193 196 201
2 335 345 333 284 344 3 328 338 22 9 356 4 352 329 322 340 338 311 310 334 322 335 337 327 322 333 5 23 355 324 303 279 275 251 219 258 263 235 162 155 154 346 26 41 11 93 121 122 103 133 242 291 82 93 70 75 295 275 195 171 162 160 164 208 215 190 148 132 157 206 222 211 155 133 136 161 173 193 197 190 204 209 197 199 200 201 209